Location: Brotuna
(46.2000°N, 22.6000°E)
Time: 03:35:54
(UTC+00:00)

SL-4 R/B - Pass Details

Date: 09 April 2020
Orbit: 428 x 666 km, 51.6° (Epoch: 04 June)

Event Time Altitude Azimuth Distance (km) Brightness Sun altitude
Rises 19:04:51 0° 277° (W) 2,392 6.4 -19.0°
Reaches altitude 10° 19:07:04 10° 287° (WNW) 1,527 5.4 -19.4°
Maximum altitude 19:10:12 33° 354° (N) 751 3.1 -19.8°
Enters shadow 19:11:40 23° 40° (NE) 985 3.2 -20.0°
